{"data":{"norad_id":62991,"epoch":"2026-05-25T00:22:13.724832Z","epoch_age_seconds":66909,"freshness":"FRESH","line1":"1 62991U 25031L   26145.01543663  .00168761  00000+0  12883-2 0  9996","line2":"2 62991  42.9969 261.6416 0003388 282.0407  78.0081 15.70907333 74754","mean_motion":15.70907333,"eccentricity":0.0003388,"inclination_deg":42.9969,"raan_deg":261.6416,"arg_perigee_deg":282.0407,"mean_anomaly_deg":78.0081,"bstar":0.0012883,"rev_number":7475,"period_min":91.666769245389,"perigee_km":354.02098998447,"apogee_km":358.58424626972,"semimajor_km":6734.4396181271,"source":"CELESTRAK","updated_at":"2026-05-25T13:38:19.832147Z"}}